Hourly Data Report for September 02, 2017

All times are specified in Local Standard Time (LST). Add 1 hour to adjust for Daylight Saving Time where and when it is observed.

ST. JOHN'S INTL A
NEWFOUNDLAND

47°37'07.000" N
52°45'09.000" W
140.50 m
8403505
71801
YYT

Download Data

Hourly Data (September 2017)
Hourly Data Report for September 2, 2017
Temp Definition
°C
Dew Point Temp Definition
°C
Rel Hum Definition
%
Wind Dir Definition
10's deg

Wind Spd Definition
km/h
Visibility Definition
km
Stn Press Definition
kPa
Hmdx Definition


Wind Chill Definition


Weather Definition


TIME
00:30 Legend Double Dagger 11.7 9.6 87 26 27 24.1 98.75     LegendNANA
01:30 Legend Double Dagger 11.4 9.4 87 25 27 24.1 98.73     LegendNANA
02:30 Legend Double Dagger 11.5 9.6 88 25 26 24.1 98.73     Mainly Clear
03:30 Legend Double Dagger 11.2 9.2 87 26 23 24.1 98.71     LegendNANA
04:30 Legend Double Dagger 10.8 9.1 89 26 21 24.1 98.73     LegendNANA
05:30 Legend Double Dagger 10.0 8.7 91 25 17 24.1 98.77     Mostly Cloudy
06:30 Legend Double Dagger 10.7 9.1 90 26 20 24.1 98.80     LegendNANA
07:30 Legend Double Dagger 12.6 9.7 82 26 22 24.1 98.83     LegendNANA
08:30 Legend Double Dagger 13.8 8.9 72 26 33 24.1 98.83     Mostly Cloudy
09:30 Legend Double Dagger 14.9 9.1 68 26 33 24.1 98.84     LegendNANA
10:30 Legend Double Dagger 15.2 7.6 60 26 35 24.1 98.85     LegendNANA
11:30 Legend Double Dagger 16.4 7.7 56 26 30 24.1 98.83     Mostly Cloudy
12:30 Legend Double Dagger 16.2 8.1 58 27 30 24.1 98.82     LegendNANA
13:30 Legend Double Dagger 16.8 7.1 53 26 41 24.1 98.77     LegendNANA
14:30 Legend Double Dagger 16.9 7.0 52 26 38 24.1 98.80     Mostly Cloudy
15:30 Legend Double Dagger 14.8 8.8 67 25 45 24.1 98.83     LegendNANA
16:30 Legend Double Dagger 13.2 10.4 83 25 28 24.1 98.84     Rain Showers
17:30 Legend Double Dagger 13.2 11.2 88 25 29 24.1 98.84     Rain Showers
18:30 Legend Double Dagger 13.0 11.6 91 26 29 24.1 98.90     Rain Showers
19:30 Legend Double Dagger 12.7 11.8 95 27 16 24.1 98.96     Rain Showers
20:30 Legend Double Dagger 10.7 9.2 91 32 28 24.1 99.13     Cloudy
21:30 Legend Double Dagger 10.2 9.5 95 33 39 19.3 99.23     Rain Showers
22:30 Legend Double Dagger 9.6 8.4 92 33 35 24.1 99.34     Rain Showers
23:30 Legend Double Dagger 9.1 8.0 93 33 31 24.1 99.48     Rain Showers

Notes on Data Quality.

Legend

  • E = Estimated
  • M = Missing
  • NA = Not Available
  • ‡ = Partner data that is not subject to review by the National Climate Archives
Date modified: